TimeEDT,TemperatureF,Dew PointF,Humidity,Sea Level PressureIn,VisibilityMPH,Wind Direction,Wind SpeedMPH,Gust SpeedMPH,PrecipitationIn,Events,Conditions,WindDirDegrees,DateUTC
12:15 AM,68.0,66.2,94,29.89,8.0,WNW,8.1,-,N/A,,Partly Cloudy,290,2013-05-24 04:15:00
12:35 AM,68.0,66.2,94,29.89,-9999.0,NNW,5.8,-,N/A,,Unknown,330,2013-05-24 04:35:00
12:55 AM,66.2,66.2,100,29.89,-9999.0,NNW,3.5,-,N/A,,Unknown,330,2013-05-24 04:55:00
1:15 AM,66.2,66.2,100,29.90,-9999.0,North,3.5,-,N/A,,Unknown,350,2013-05-24 05:15:00
1:35 AM,66.2,66.2,100,29.89,10.0,NNW,3.5,-,N/A,,Clear,330,2013-05-24 05:35:00
1:55 AM,64.4,64.4,100,29.89,10.0,NW,3.5,-,N/A,,Clear,310,2013-05-24 05:55:00
2:15 AM,62.6,62.6,100,29.89,10.0,Calm,Calm,-,N/A,,Partly Cloudy,0,2013-05-24 06:15:00
2:35 AM,62.6,62.6,100,29.89,10.0,Calm,Calm,-,N/A,,Scattered Clouds,0,2013-05-24 06:35:00
2:55 AM,62.6,62.6,100,29.89,10.0,Calm,Calm,-,N/A,,Clear,0,2013-05-24 06:55:00
3:15 AM,62.6,62.6,100,29.89,5.0,West,4.6,-,N/A,,Scattered Clouds,260,2013-05-24 07:15:00
3:35 AM,60.8,60.8,100,29.89,9.0,West,3.5,-,N/A,,Scattered Clouds,280,2013-05-24 07:35:00
3:55 AM,60.8,60.8,100,29.90,9.0,Calm,Calm,-,N/A,,Scattered Clouds,0,2013-05-24 07:55:00
4:15 AM,62.6,62.6,100,29.89,-9999.0,West,4.6,-,N/A,,Unknown,280,2013-05-24 08:15:00
4:35 AM,62.6,62.6,100,29.90,-9999.0,West,3.5,-,N/A,,Unknown,270,2013-05-24 08:35:00
4:55 AM,60.8,60.8,100,29.90,-9999.0,WNW,3.5,-,N/A,,Unknown,290,2013-05-24 08:55:00
5:15 AM,62.6,62.6,100,29.91,-9999.0,West,4.6,-,N/A,,Unknown,280,2013-05-24 09:15:00
5:35 AM,62.6,62.6,100,29.91,-9999.0,WNW,4.6,-,N/A,,Unknown,300,2013-05-24 09:35:00
5:55 AM,60.8,60.8,100,29.92,-9999.0,WNW,3.5,-,N/A,,Unknown,290,2013-05-24 09:55:00
6:15 AM,59.0,59.0,100,29.93,10.0,West,3.5,-,N/A,,Scattered Clouds,280,2013-05-24 10:15:00
6:35 AM,60.8,60.8,100,29.93,-9999.0,West,3.5,-,N/A,,Unknown,270,2013-05-24 10:35:00
6:55 AM,60.8,60.8,100,29.93,-9999.0,WNW,3.5,-,N/A,,Mostly Cloudy,300,2013-05-24 10:55:00
7:15 AM,60.8,60.8,100,29.94,-9999.0,West,3.5,-,N/A,,Mostly Cloudy,260,2013-05-24 11:15:00
7:35 AM,62.6,62.6,100,29.94,-9999.0,WNW,4.6,-,N/A,,Unknown,290,2013-05-24 11:35:00
7:55 AM,64.4,62.6,94,29.95,-9999.0,WNW,3.5,-,N/A,,Unknown,300,2013-05-24 11:55:00
8:15 AM,64.4,60.8,88,29.96,-9999.0,WNW,5.8,-,N/A,,Unknown,300,2013-05-24 12:15:00
8:35 AM,66.2,59.0,78,29.96,-9999.0,WNW,6.9,-,N/A,,Clear,290,2013-05-24 12:35:00
8:55 AM,68.0,59.0,73,29.97,10.0,WNW,4.6,-,N/A,,Clear,290,2013-05-24 12:55:00
9:15 AM,69.8,59.0,68,29.98,10.0,WNW,4.6,-,N/A,,Clear,300,2013-05-24 13:15:00
9:35 AM,69.8,59.0,68,29.99,-9999.0,WNW,6.9,-,N/A,,Clear,300,2013-05-24 13:35:00
9:55 AM,71.6,57.2,60,30.00,10.0,NNW,8.1,-,N/A,,Clear,330,2013-05-24 13:55:00
10:15 AM,73.4,57.2,57,30.01,10.0,NW,11.5,17.3,N/A,,Clear,310,2013-05-24 14:15:00
10:35 AM,73.4,55.4,53,30.01,10.0,NW,10.4,-,N/A,,Clear,320,2013-05-24 14:35:00
10:55 AM,73.4,55.4,53,30.02,9.0,NNW,11.5,17.3,N/A,,Scattered Clouds,340,2013-05-24 14:55:00
11:15 AM,73.4,55.4,53,30.03,10.0,WNW,12.7,19.6,N/A,,Mostly Cloudy,300,2013-05-24 15:15:00
11:35 AM,71.6,53.6,53,30.04,10.0,NW,9.2,21.9,N/A,,Mostly Cloudy,320,2013-05-24 15:35:00
11:55 AM,73.4,55.4,53,30.04,10.0,NW,15.0,20.7,N/A,,Mostly Cloudy,320,2013-05-24 15:55:00
12:15 PM,75.2,53.6,47,30.05,10.0,NNW,13.8,19.6,N/A,,Scattered Clouds,340,2013-05-24 16:15:00
12:35 PM,73.4,53.6,50,30.05,9.0,NNW,15.0,25.3,N/A,,Partly Cloudy,340,2013-05-24 16:35:00
12:55 PM,73.4,48.2,41,30.06,9.0,NNW,16.1,25.3,N/A,,Clear,340,2013-05-24 16:55:00
1:15 PM,73.4,42.8,33,30.07,9.0,North,17.3,24.2,N/A,,Clear,350,2013-05-24 17:15:00
1:35 PM,73.4,44.6,36,30.07,10.0,NW,13.8,25.3,N/A,,Clear,320,2013-05-24 17:35:00
1:55 PM,73.4,41.0,31,30.07,10.0,North,16.1,25.3,N/A,,Clear,350,2013-05-24 17:55:00
2:15 PM,73.4,37.4,27,30.08,10.0,North,20.7,27.6,N/A,,Clear,360,2013-05-24 18:15:00
2:35 PM,73.4,39.2,29,30.08,10.0,NNW,12.7,24.2,N/A,,Clear,330,2013-05-24 18:35:00
2:55 PM,73.4,41.0,31,30.08,10.0,North,15.0,20.7,N/A,,Clear,350,2013-05-24 18:55:00
3:15 PM,73.4,41.0,31,30.08,10.0,North,16.1,21.9,N/A,,Clear,350,2013-05-24 19:15:00
3:35 PM,73.4,42.8,33,30.08,9.0,North,10.4,21.9,N/A,,Clear,350,2013-05-24 19:35:00
3:55 PM,73.4,44.6,36,30.08,10.0,WNW,11.5,19.6,N/A,,Clear,300,2013-05-24 19:55:00
4:15 PM,73.4,42.8,33,30.09,10.0,NNW,11.5,21.9,N/A,,Clear,330,2013-05-24 20:15:00
4:35 PM,73.4,42.8,33,30.09,9.0,NNW,13.8,19.6,N/A,,Clear,340,2013-05-24 20:35:00
4:55 PM,73.4,39.2,29,30.09,10.0,NW,12.7,20.7,N/A,,Clear,320,2013-05-24 20:55:00
5:15 PM,73.4,37.4,27,30.09,10.0,NW,16.1,21.9,N/A,,Clear,320,2013-05-24 21:15:00
5:35 PM,73.4,35.6,25,30.09,9.0,North,12.7,19.6,N/A,,Clear,350,2013-05-24 21:35:00
5:55 PM,73.4,35.6,25,30.09,10.0,NW,9.2,19.6,N/A,,Clear,320,2013-05-24 21:55:00
6:15 PM,73.4,32.0,22,30.10,10.0,NNW,13.8,19.6,N/A,,Clear,340,2013-05-24 22:15:00
6:35 PM,71.6,35.6,27,30.10,8.0,NNW,9.2,-,N/A,,Clear,340,2013-05-24 22:35:00
6:55 PM,71.6,32.0,23,30.10,8.0,NNW,11.5,18.4,N/A,,Clear,340,2013-05-24 22:55:00
7:15 PM,71.6,35.6,27,30.11,9.0,NNW,10.4,-,N/A,,Clear,340,2013-05-24 23:15:00
7:35 PM,69.8,32.0,25,30.12,10.0,NNW,10.4,16.1,N/A,,Clear,340,2013-05-24 23:35:00
7:55 PM,68.0,32.0,26,30.13,10.0,NNW,6.9,-,N/A,,Clear,330,2013-05-24 23:55:00
8:15 PM,66.2,32.0,28,30.14,10.0,NNW,4.6,-,N/A,,Clear,330,2013-05-25 00:15:00
8:35 PM,64.4,33.8,32,30.14,10.0,NNW,5.8,-,N/A,,Clear,330,2013-05-25 00:35:00
8:55 PM,62.6,37.4,39,30.15,10.0,NNW,4.6,-,N/A,,Clear,330,2013-05-25 00:55:00
9:15 PM,62.6,35.6,37,30.15,10.0,NNW,4.6,-,N/A,,Clear,340,2013-05-25 01:15:00
9:35 PM,60.8,35.6,39,30.16,10.0,Calm,Calm,-,N/A,,Clear,0,2013-05-25 01:35:00
9:55 PM,57.2,41.0,55,30.17,10.0,Calm,Calm,-,N/A,,Clear,0,2013-05-25 01:55:00
10:15 PM,53.6,48.2,82,30.18,10.0,Calm,Calm,-,N/A,,Clear,0,2013-05-25 02:15:00
10:35 PM,51.8,46.4,82,30.19,10.0,Calm,Calm,-,N/A,,Clear,0,2013-05-25 02:35:00
10:55 PM,50.0,46.4,87,30.20,10.0,Calm,Calm,-,N/A,,Clear,0,2013-05-25 02:55:00
11:15 PM,48.2,46.4,93,30.21,10.0,Calm,Calm,-,N/A,,Clear,0,2013-05-25 03:15:00
11:35 PM,48.2,46.4,93,30.21,10.0,Calm,Calm,-,N/A,,Clear,0,2013-05-25 03:35:00
11:55 PM,48.2,48.2,100,30.22,10.0,Calm,Calm,-,N/A,,Clear,0,2013-05-25 03:55:00